Change the Weather History Date:

Friday, February 1, 2013

  Actual Average Record
Temperature  
Mean Temperature 36 °F 28 °F  
Max Temperature 53 °F 42 °F 80 °F (2003)
Min Temperature 18 °F 15 °F -23 °F (1918)
Degree Days  
Heating Degree Days 29    
Moisture  
Dew Point 23 °F    
Average Humidity 66    
Maximum Humidity 88    
Minimum Humidity 32    
Precipitation  
Precipitation T in 0.02 in 0.66 in (1981)
Month to date precipitation T 0.02  
Year to date precipitation 0.05 0.53  
Sea Level Pressure  
Sea Level Pressure 30.17 in    
Wind  
Wind Speed 9 mph (WSW)    
Max Wind Speed 17 mph    
Max Gust Speed 24 mph    
Visibility 10 miles    
Events      
T = Trace of Precipitation, MM = Missing Value Source: NWS Daily Summary

Daily Weather History Graph

Daily Weather History Graph

Search for Another Location

Airport or City:

Trip Planner

Search our weather history database for the weather conditions in past years. The results will help you decide how hot, cold, wet, or windy it might be!

Date:

Astronomy

Feb. 01, 2013 Rise Set
Actual Time 7:50 AM CST 6:01 PM CST
Civil Twilight 7:22 AM CST 6:30 PM CST
Nautical Twilight 6:49 AM CST 7:02 PM CST
Astronomical Twilight 6:17 AM CST 7:34 PM CST
Moon No Moon Rise 10:24 AM CST (2/1)
Length of Visible Light 11h 07m
Length of Day
10h 10m
Waning Gibbous, 70% of the Moon is Illuminated
Feb 1
Waning Gibbous
Feb 3
Last Quarter
Feb 10
New
Feb 17
First Quarter
Feb 25
Full

Hourly Weather History & Observations

Time (CST) Temp. Windchill Dew Point Humidity Pressure Visibility Wind Dir Wind Speed Gust Speed Precip Events Conditions
12:53 AM 21.2 °F 13.6 °F 15.8 °F 80% 30.24 in 10.0 mi SSW 5.8 mph - N/A   Overcast
1:53 AM 26.1 °F 17.6 °F 18.0 °F 71% 30.31 in 10.0 mi SW 8.1 mph - N/A   Overcast
2:53 AM 25.0 °F 13.6 °F 18.0 °F 75% 30.30 in 10.0 mi WSW 12.7 mph - N/A   Mostly Cloudy
3:53 AM 21.9 °F 14.5 °F 17.1 °F 82% 30.29 in 10.0 mi SW 5.8 mph - N/A   Clear
4:53 AM 21.9 °F 11.0 °F 17.1 °F 82% 30.29 in 10.0 mi WSW 10.4 mph - N/A   Clear
5:53 AM 19.0 °F 12.3 °F 16.0 °F 88% 30.28 in 9.0 mi SW 4.6 mph - N/A   Clear
6:53 AM 19.0 °F 12.3 °F 16.0 °F 88% 30.26 in 8.0 mi SW 4.6 mph - N/A   Clear
7:53 AM 19.0 °F 11.1 °F 16.0 °F 88% 30.25 in 7.0 mi SW 5.8 mph - N/A   Clear
8:53 AM 23.0 °F 13.1 °F 18.0 °F 81% 30.23 in 5.0 mi West 9.2 mph - N/A   Haze
9:53 AM 28.9 °F 21.1 °F 21.9 °F 75% 30.20 in 9.0 mi SW 8.1 mph - N/A   Clear
10:53 AM 35.1 °F 25.9 °F 24.1 °F 64% 30.17 in 10.0 mi WSW 13.8 mph - N/A   Partly Cloudy
11:53 AM 37.9 °F 28.5 °F 23.0 °F 55% 30.15 in 10.0 mi WSW 17.3 mph - N/A   Mostly Cloudy
12:53 PM 44.1 °F 37.7 °F 24.1 °F 45% 30.10 in 10.0 mi WSW 12.7 mph - N/A   Clear
1:53 PM 48.9 °F - 25.0 °F 39% 30.05 in 10.0 mi SW 11.5 mph - N/A   Clear
2:53 PM 51.1 °F - 24.1 °F 35% 30.03 in 10.0 mi Variable 5.8 mph - N/A   Partly Cloudy
3:53 PM 53.1 °F - 24.1 °F 32% 30.01 in 10.0 mi SSW 6.9 mph - N/A   Scattered Clouds
4:53 PM 52.0 °F - 24.1 °F 34% 30.02 in 10.0 mi WSW 3.5 mph - N/A   Mostly Cloudy
5:53 PM 48.0 °F - 26.1 °F 42% 30.06 in 10.0 mi NW 16.1 mph 24.2 mph N/A   Overcast
6:53 PM 46.0 °F 40.6 °F 32.0 °F 58% 30.09 in 10.0 mi West 11.5 mph - 0.00 in   Overcast
7:53 PM 43.0 °F 37.2 °F 33.1 °F 68% 30.12 in 10.0 mi West 10.4 mph - N/A   Overcast
8:53 PM 41.0 °F 34.3 °F 32.0 °F 70% 30.14 in 10.0 mi NNW 11.5 mph - N/A   Mostly Cloudy
9:53 PM 41.0 °F 33.9 °F 33.1 °F 73% 30.16 in 10.0 mi NW 12.7 mph - 0.00 in   Overcast
10:53 PM 36.0 °F 28.0 °F 30.9 °F 82% 30.18 in 10.0 mi WNW 11.5 mph - N/A   Partly Cloudy
11:53 PM 35.1 °F 26.9 °F 30.0 °F 82% 30.19 in 10.0 mi West 11.5 mph - N/A   Clear